SCP
0 0 0 0 0 0 0 0 0 0 0 0 0 0 0 0 0 0 0 0 0 0 0 0 0 1 1 1 0 0 0 0 0 0 0 0 0 0 0 0 0 0 0
0 0 0 0 0 0 0 0 0 0 0 0 0 0 0 0 0 0 0 0 0 0 0 0 0 0 0 1 0 0 0 0 0 0 0 0 0 0 0 0 0 0 0
0 0 0 0 0 0 0 0 0 0 0 0 0 0 0 0 0 0 0 0 0 0 0 0 0 0 0 0 0 1 0 0 0 0 0 0 0 0 0 0 0 0 0
0 0 0 0 0 0 0 0 0 0 0 0 0 0 0 0 0 0 0 0 0 0 0 0 0 0 0 0 0 1 1 0 0 0 0 0 0 0 0 0 0 0 0
0 0 0 0 0 0 0 0 0 0 0 0 0 0 0 0 0 0 0 0 0 0 0 0 0 0 0 0 0 1 1 0 0 0 0 0 0 0 0 0 0 0 0
0 0 0 0 0 0 0 0 0 0 0 0 0 0 0 0 0 0 0 0 0 0 0 0 0 0 0 0 0 0 0 0 0 0 0 0 0 0 0 0 0 0 0
0 0 0 0 0 0 0 0 0 0 0 0 0 0 0 0 0 0 0 0 0 0 0 0 0 0 0 0 0 0 0 0 0 0 0 0 0 0 0 0 0 0 0
0 0 0 0 0 0 0 0 0 0 0 0 0 0 0 0 0 0 0 0 0 0 0 0 0 0 0 0 0 0 0 0 0 0 0 0 0 0 0 0 0 0 0
-0 0 0 0 0 0 0 0 0 0 0 0 0 0 0 0 0 0 0 0 0 0 0 0 0 0 0 0 0 0 0 0 0 0 0 0 0 0 0 0 0 0 0
0 0 0 0 0 0 0 0 0 0 0 0 0 0 0 0 0 0 0 0 0 0 0 0 0 0 0 0 0 0 0 0 0 0 0 0 0 0 0 0 0 0 0
0 0 0 0 0 0 0 0 0 0 0 0 0 0 0 0 0 0 0 0 0 0 0 0 0 0 0 0 0 0 0 0 0 0 0 0 0 0 0 0 0 0 0
0 0 0 0 0 0 0 0 0 0 0 0 0 0 0 0 0 0 0 0 0 0 0 0 0 0 0 0 0 0 0 0 0 0 0 0 0 0 0 0 0 0 0
0 0 0 0 0 0 0 0 0 0 0 0 0 0 0 0 0 0 0 0 0 0 0 0 0 0 0 0 0 0 0 0 0 0 0 0 0 0 0 0 0 0 0
0 0 0 0 0 0 0 0 0 0 0 0 0 0 0 0 0 0 0 0 0 0 0 0 0 0 0 0 0 0 0 0 0 0 0 0 0 0 0 0 0 0 0
0 0 0 0 0 0 0 0 0 0 0 0 0 0 0 0 0 0 0 0 0 0 0 0 0 0 0 0 0 0 0 0 0 0 0 0 0 0 0 0 0 0 0
0 0 0 0 0 0 0 0 0 0 0 0 0 0 0 0 0 0 0 0 0 0 0 0 0 0 0 0 0 0 0 0 0 0 0 0 0 0 0 0 0 0 0
0 0 0 0 0 0 0 0 0 0 0 0 0 0 0 0 0 0 0 0 0 0 0 0 0 0 0 0 0 0 0 0 0 0 0 0 0 0 0 0 0 0 0
0 0 0 0 0 0 0 0 0 0 0 0 0 0 0 0 0 0 0 0 0 0 0 0 0 0 0 0 0 0 0 0 -0 0 0 0 0 0 0 0 0 0 0
0 0 0 0 0 0 0 0 0 0 0 0 0 0 0 0 0 0 0 0 0 0 0 0 -0 -0 -0 0 0 0 0 -0 0 0 0 0 0 0 0 0 0 0 0
0 0 0 0 0 0 0 0 0 0 0 0 0 0 0 0 0 0 0 0 0 0 0 0 -0 0 0 0 0 -0 -0 0 0 0 0 0 0 0 0 0 0 0 0
0 0 0 0 0 0 -0 0 0 0 0 0 0 0 0 0 0 0 0 0 0 0 -0 -0 0 0 0 -0 0 0 0 0 0 0 0 0 0 0 0 0 0 0 0
0 0 0 0 0 0 -0 0 0 0 0 0 0 0 0 0 0 0 -0 0 0 0 0 0 0 0 0 0 0 0 0 0 0 0 0 0 0 0 0 0 0 0 0
0 0 0 0 0 0 0 -0 0 0 0 0 0 0 0 0 0 0 -0 0 0 0 0 0 0 0 0 0 0 -0 -0 -0 -0 0 0 -0 0 0 -0 0 0 0 0
0 0 0 0 0 0 0 0 0 0 0 -0 -0 -0 0 0 0 0 0 0 0 0 0 0 0 0 0 0 0 0 -0 -0 -0 0 0 0 0 -0 -0 0 0 0 0
-0 0 0 0 0 0 0 0 0 0 0 -0 -0 -0 -0 0 0 0 0 0 0 -0 0 0 0 0 0 0 -0 0 0 0 0 0 0 0 0 0 0 0 0 0 0
-0 0 0 0 0 0 0 0 0 0 0 -0 -0 -0 -0 -0 0 0 0 0 0 0 -0 -0 0 0 -0 -0 0 -0 -0 -0 -0 0 0 0 0 0 0 0 0 0 0
Wind_Speed_500mb
23 24 22 18 13 9 9 12 24 40 47 48 44 44 49 47 46 46 52 56 59 50 50 53 59 63 67 70 74 78 74 113 101 89 91 92 81 102 98 97 97 100 91
23 22 19 13 10 7 6 18 44 48 35 35 37 41 43 51 48 51 55 65 70 66 57 54 57 58 60 71 71 69 78 71 93 96 105 64 74 82 83 88 102 104 96
21 20 18 15 13 13 20 35 55 69 56 53 61 70 76 81 83 85 85 86 82 81 79 76 70 67 66 66 67 72 73 72 85 96 78 39 52 77 93 98 101 109 110
17 17 16 18 18 28 36 47 63 77 72 63 69 75 80 82 85 80 78 75 74 92 95 93 91 86 79 71 72 73 75 75 84 100 113 102 81 57 46 99 105 97 113
21 19 18 20 26 39 54 69 82 89 72 64 65 70 76 83 84 80 82 84 90 90 93 105 104 95 90 89 80 74 81 81 78 65 78 108 98 80 76 58 93 103 100
24 23 21 26 34 40 70 79 67 69 67 67 70 73 77 80 79 77 76 74 74 77 83 92 104 108 97 97 93 84 81 87 88 87 88 55 81 94 85 66 101 112 100
19 18 23 21 35 63 64 64 63 68 68 67 68 68 73 77 80 79 77 72 72 72 75 75 82 86 93 95 95 101 90 87 81 90 84 85 88 81 90 75 79 86 94
22 26 20 30 56 63 64 63 65 67 65 60 62 65 73 74 73 70 68 70 68 66 65 68 72 76 80 84 90 94 97 92 86 84 84 74 81 83 93 89 74 62 80
14 21 27 43 58 61 64 64 63 61 61 72 72 68 67 65 72 76 78 76 78 83 88 88 89 83 83 84 83 88 92 92 89 81 85 90 77 87 105 115 114 85 67
25 26 41 58 57 59 62 56 55 63 73 69 61 60 64 63 67 71 73 74 81 75 72 76 75 79 82 81 81 82 83 86 86 84 80 81 81 86 86 104 106 95 86
37 40 47 46 48 55 50 56 64 66 64 66 65 61 62 64 67 67 69 70 71 70 75 73 74 77 64 84 72 72 75 74 80 79 81 84 82 86 98 106 102 95 96
41 44 40 42 45 46 51 71 70 63 66 67 64 60 61 63 63 64 65 64 71 69 70 72 75 70 76 77 83 81 72 75 75 79 79 85 84 84 85 90 94 103 105
41 40 39 39 42 50 67 73 66 67 67 65 64 62 62 63 63 62 62 63 65 66 65 65 67 66 75 73 79 83 88 94 82 75 81 86 85 92 96 95 94 97 95
43 40 36 43 45 65 71 68 67 69 65 64 62 62 64 63 64 62 60 60 60 63 64 64 64 63 71 77 78 79 79 81 75 75 79 81 88 89 91 91 86 90 101
52 38 40 44 56 69 74 71 70 69 61 60 59 57 57 56 57 60 63 64 60 62 62 56 58 58 59 63 71 69 68 80 65 77 71 84 82 84 92 84 82 88 99
56 39 42 48 59 68 71 72 69 63 57 56 53 52 53 55 57 61 60 56 53 53 45 46 48 52 57 62 64 69 67 70 52 70 65 77 84 79 75 65 77 82 81
36 41 44 47 56 63 68 68 65 57 54 51 49 49 50 50 52 52 48 46 41 26 19 27 34 39 45 49 52 52 58 63 57 63 59 72 71 66 60 60 60 75 80
44 43 42 45 53 60 64 63 59 52 50 48 47 45 45 45 49 47 43 38 35 28 15 12 19 27 36 38 45 48 46 52 60 58 73 69 61 61 54 58 66 72 66
48 46 41 41 51 57 62 61 58 52 49 50 45 43 41 44 42 42 41 36 32 28 19 8 6 15 18 22 28 38 45 45 57 52 63 52 53 52 47 54 61 63 55
49 44 38 38 46 53 58 58 55 52 51 48 44 41 38 38 37 34 32 32 33 32 28 14 3 9 7 10 9 26 38 36 57 58 47 41 42 45 46 52 59 57 52
50 43 40 37 39 46 53 54 53 52 45 41 39 37 34 31 29 28 26 24 27 35 39 34 23 13 10 9 14 15 21 43 52 42 36 32 30 34 37 34 42 42 46
52 46 42 35 33 38 49 51 51 49 42 35 34 33 32 28 25 26 25 27 29 36 41 40 39 30 20 10 4 11 6 26 27 30 27 24 24 25 24 26 26 33 52
55 43 45 38 28 28 37 45 46 43 41 32 30 30 29 26 26 28 29 31 33 38 36 38 37 35 21 14 15 15 10 11 13 22 27 34 35 33 31 30 49 57 49
56 46 35 39 29 22 23 31 40 37 37 32 26 29 36 34 35 37 35 36 41 35 37 38 40 38 33 31 28 27 23 22 37 45 52 49 49 54 57 52 53 58 54
59 52 39 36 34 25 17 18 26 35 36 31 27 31 36 42 47 51 50 51 51 48 50 44 42 42 40 36 36 42 51 57 61 64 63 64 63 66 64 61 55 48 41
50 65 49 37 36 31 25 15 15 20 28 28 28 33 37 44 51 54 58 58 57 57 56 55 56 52 45 41 47 51 56 60 63 66 65 65 62 57 51 48 45 39 33
Wind_Direction_500mb
190 187 188 202 211 249 272 300 314 312 298 288 284 277 272 268 266 260 261 263 266 257 250 249 256 261 259 252 247 244 243 225 221 220 226 215 207 211 216 221 220 212 215
181 181 181 186 200 196 274 313 330 323 294 283 277 268 264 258 253 252 251 255 258 256 251 249 251 256 255 259 256 247 242 245 212 210 210 215 212 213 203 204 217 217 220
182 186 194 198 200 247 284 300 324 330 312 294 284 279 275 271 268 262 259 258 257 256 256 257 254 254 257 257 257 257 247 242 240 237 211 193 221 220 207 218 206 213 217
201 200 209 216 235 265 286 299 313 317 310 295 285 279 273 270 268 266 264 264 264 262 259 258 256 255 254 252 253 255 256 249 235 230 238 225 215 197 200 210 210 205 211
218 226 238 250 263 284 300 308 305 305 298 289 282 277 275 275 274 269 265 261 257 252 254 258 258 257 255 251 246 243 249 251 244 241 214 206 210 212 209 202 203 204 199
225 233 251 279 293 304 311 308 299 298 295 292 287 280 276 275 275 273 270 267 263 258 252 250 253 255 247 246 246 243 240 248 249 246 238 241 211 208 205 205 205 206 202
227 256 278 284 306 315 312 306 303 299 297 292 286 281 279 278 277 275 273 271 268 262 258 255 251 248 245 241 240 240 238 237 239 244 239 249 251 221 214 205 202 201 204
247 272 278 299 312 314 311 309 305 298 295 293 289 282 278 276 275 273 269 266 266 266 264 256 253 247 246 242 236 236 236 235 236 236 236 231 231 235 230 217 215 194 204
252 265 286 309 312 309 311 310 304 302 297 291 292 288 285 282 277 274 273 274 272 271 264 256 253 255 248 242 237 234 232 231 232 233 240 236 233 240 230 228 222 222 200
317 294 299 308 309 312 313 310 303 298 298 295 294 291 290 287 283 284 279 274 266 264 267 266 260 251 245 240 234 230 231 229 229 226 229 235 234 232 226 216 216 220 227
313 302 304 308 311 316 314 306 303 304 302 305 308 303 296 293 294 291 287 283 278 271 262 258 257 249 246 234 231 231 230 230 229 228 224 227 222 221 225 226 228 228 224
312 308 308 310 316 316 312 314 319 308 315 319 314 312 309 307 304 298 295 289 284 277 268 260 255 248 245 242 238 235 230 233 232 229 223 223 222 222 223 227 229 228 235
316 312 310 316 322 318 322 327 321 318 324 323 318 321 318 316 308 306 303 298 291 284 274 264 255 247 239 236 233 235 240 234 233 232 222 220 216 221 222 228 232 235 236
315 309 311 322 323 327 332 329 325 329 329 324 327 328 323 318 317 314 308 301 294 287 277 266 257 250 239 235 237 235 239 229 232 230 225 217 217 219 221 223 230 235 231
313 316 321 324 330 338 336 333 332 334 334 332 333 330 327 327 325 323 318 312 300 288 278 266 254 247 237 233 235 233 234 230 236 221 226 216 212 221 227 228 235 237 234
318 322 325 327 339 342 337 333 336 339 338 337 335 335 333 333 333 327 326 321 311 299 273 260 253 244 232 231 233 232 237 233 236 217 229 216 214 224 231 234 243 245 239
322 324 325 331 342 342 338 334 340 339 341 340 339 339 335 338 334 337 340 342 337 321 284 261 251 241 228 229 230 229 224 229 231 222 229 213 223 226 231 238 242 247 249
325 324 323 328 339 344 340 337 344 343 340 346 345 337 335 338 341 346 350 357 2 358 342 283 246 231 224 225 224 225 212 222 230 224 214 211 221 224 229 228 232 238 238
321 320 317 322 333 345 342 342 348 346 345 352 344 338 339 339 347 352 355 4 9 8 2 336 244 216 218 220 216 214 223 226 211 224 222 218 221 222 221 223 227 227 225
320 323 316 316 328 344 347 348 351 349 352 351 344 342 347 347 355 4 4 20 15 17 17 18 119 193 189 190 159 201 194 207 210 204 211 212 219 222 227 229 224 219 215
307 320 317 313 324 340 349 354 355 353 351 353 348 349 355 359 2 13 14 35 42 43 53 60 75 87 131 159 137 196 198 207 192 186 190 198 205 218 225 215 217 217 203
312 307 310 306 313 336 350 359 360 356 355 357 356 358 10 14 18 31 38 43 55 63 64 68 78 82 93 101 98 167 190 169 169 173 180 175 162 177 183 184 189 189 169
317 302 301 296 300 326 350 2 5 3 7 11 8 18 27 29 41 48 56 59 59 66 69 76 81 85 93 108 107 125 139 136 166 155 150 142 149 149 144 145 156 157 161
333 317 286 285 284 298 344 2 14 14 22 24 34 45 53 52 59 64 61 59 63 66 78 83 89 96 100 99 105 106 113 127 136 137 133 140 140 135 135 145 145 143 139
319 320 287 277 274 275 302 351 8 23 32 32 47 64 70 70 68 63 60 62 65 69 76 81 89 92 92 100 113 124 134 137 134 131 132 133 131 130 134 133 128 122 118
292 307 296 268 267 264 268 286 335 16 37 46 54 67 80 83 84 81 79 74 75 76 78 80 81 85 91 102 108 114 120 125 129 128 128 128 132 130 125 122 125 130 135
Wind_Speed_850mb
23 24 22 18 13 9 9 12 24 40 47 48 44 44 49 47 46 46 52 56 59 50 50 53 59 63 67 70 74 78 74 113 101 89 91 92 81 102 98 97 97 100 91
23 22 19 13 10 7 6 18 44 48 35 35 37 41 43 51 48 51 55 65 70 66 57 54 57 58 60 71 71 69 78 71 93 96 105 64 74 82 83 88 102 104 96
21 20 18 15 13 13 20 35 55 69 56 53 61 70 76 81 83 85 85 86 82 81 79 76 70 67 66 66 67 72 73 72 85 96 78 39 52 77 93 98 101 109 110
17 17 16 18 18 28 36 47 63 77 72 63 69 75 80 82 85 80 78 75 74 92 95 93 91 86 79 71 72 73 75 75 84 100 113 102 81 57 46 99 105 97 113
21 19 18 20 26 39 54 69 82 89 72 64 65 70 76 83 84 80 82 84 90 90 93 105 104 95 90 89 80 74 81 81 78 65 78 108 98 80 76 58 93 103 100
24 23 21 26 34 40 70 79 67 69 67 67 70 73 77 80 79 77 76 74 74 77 83 92 104 108 97 97 93 84 81 87 88 87 88 55 81 94 85 66 101 112 100
19 18 23 21 35 63 64 64 63 68 68 67 68 68 73 77 80 79 77 72 72 72 75 75 82 86 93 95 95 101 90 87 81 90 84 85 88 81 90 75 79 86 94
22 26 20 30 56 63 64 63 65 67 65 60 62 65 73 74 73 70 68 70 68 66 65 68 72 76 80 84 90 94 97 92 86 84 84 74 81 83 93 89 74 62 80
14 21 27 43 58 61 64 64 63 61 61 72 72 68 67 65 72 76 78 76 78 83 88 88 89 83 83 84 83 88 92 92 89 81 85 90 77 87 105 115 114 85 67
25 26 41 58 57 59 62 56 55 63 73 69 61 60 64 63 67 71 73 74 81 75 72 76 75 79 82 81 81 82 83 86 86 84 80 81 81 86 86 104 106 95 86
37 40 47 46 48 55 50 56 64 66 64 66 65 61 62 64 67 67 69 70 71 70 75 73 74 77 64 84 72 72 75 74 80 79 81 84 82 86 98 106 102 95 96
41 44 40 42 45 46 51 71 70 63 66 67 64 60 61 63 63 64 65 64 71 69 70 72 75 70 76 77 83 81 72 75 75 79 79 85 84 84 85 90 94 103 105
41 40 39 39 42 50 67 73 66 67 67 65 64 62 62 63 63 62 62 63 65 66 65 65 67 66 75 73 79 83 88 94 82 75 81 86 85 92 96 95 94 97 95
43 40 36 43 45 65 71 68 67 69 65 64 62 62 64 63 64 62 60 60 60 63 64 64 64 63 71 77 78 79 79 81 75 75 79 81 88 89 91 91 86 90 101
52 38 40 44 56 69 74 71 70 69 61 60 59 57 57 56 57 60 63 64 60 62 62 56 58 58 59 63 71 69 68 80 65 77 71 84 82 84 92 84 82 88 99
56 39 42 48 59 68 71 72 69 63 57 56 53 52 53 55 57 61 60 56 53 53 45 46 48 52 57 62 64 69 67 70 52 70 65 77 84 79 75 65 77 82 81
36 41 44 47 56 63 68 68 65 57 54 51 49 49 50 50 52 52 48 46 41 26 19 27 34 39 45 49 52 52 58 63 57 63 59 72 71 66 60 60 60 75 80
44 43 42 45 53 60 64 63 59 52 50 48 47 45 45 45 49 47 43 38 35 28 15 12 19 27 36 38 45 48 46 52 60 58 73 69 61 61 54 58 66 72 66
48 46 41 41 51 57 62 61 58 52 49 50 45 43 41 44 42 42 41 36 32 28 19 8 6 15 18 22 28 38 45 45 57 52 63 52 53 52 47 54 61 63 55
49 44 38 38 46 53 58 58 55 52 51 48 44 41 38 38 37 34 32 32 33 32 28 14 3 9 7 10 9 26 38 36 57 58 47 41 42 45 46 52 59 57 52
50 43 40 37 39 46 53 54 53 52 45 41 39 37 34 31 29 28 26 24 27 35 39 34 23 13 10 9 14 15 21 43 52 42 36 32 30 34 37 34 42 42 46
52 46 42 35 33 38 49 51 51 49 42 35 34 33 32 28 25 26 25 27 29 36 41 40 39 30 20 10 4 11 6 26 27 30 27 24 24 25 24 26 26 33 52
55 43 45 38 28 28 37 45 46 43 41 32 30 30 29 26 26 28 29 31 33 38 36 38 37 35 21 14 15 15 10 11 13 22 27 34 35 33 31 30 49 57 49
56 46 35 39 29 22 23 31 40 37 37 32 26 29 36 34 35 37 35 36 41 35 37 38 40 38 33 31 28 27 23 22 37 45 52 49 49 54 57 52 53 58 54
59 52 39 36 34 25 17 18 26 35 36 31 27 31 36 42 47 51 50 51 51 48 50 44 42 42 40 36 36 42 51 57 61 64 63 64 63 66 64 61 55 48 41
50 65 49 37 36 31 25 15 15 20 28 28 28 33 37 44 51 54 58 58 57 57 56 55 56 52 45 41 47 51 56 60 63 66 65 65 62 57 51 48 45 39 33
Wind_Direction_850mb
190 187 188 202 211 249 272 300 314 312 298 288 284 277 272 268 266 260 261 263 266 257 250 249 256 261 259 252 247 244 243 225 221 220 226 215 207 211 216 221 220 212 215
181 181 181 186 200 196 274 313 330 323 294 283 277 268 264 258 253 252 251 255 258 256 251 249 251 256 255 259 256 247 242 245 212 210 210 215 212 213 203 204 217 217 220
182 186 194 198 200 247 284 300 324 330 312 294 284 279 275 271 268 262 259 258 257 256 256 257 254 254 257 257 257 257 247 242 240 237 211 193 221 220 207 218 206 213 217
201 200 209 216 235 265 286 299 313 317 310 295 285 279 273 270 268 266 264 264 264 262 259 258 256 255 254 252 253 255 256 249 235 230 238 225 215 197 200 210 210 205 211
218 226 238 250 263 284 300 308 305 305 298 289 282 277 275 275 274 269 265 261 257 252 254 258 258 257 255 251 246 243 249 251 244 241 214 206 210 212 209 202 203 204 199
225 233 251 279 293 304 311 308 299 298 295 292 287 280 276 275 275 273 270 267 263 258 252 250 253 255 247 246 246 243 240 248 249 246 238 241 211 208 205 205 205 206 202
227 256 278 284 306 315 312 306 303 299 297 292 286 281 279 278 277 275 273 271 268 262 258 255 251 248 245 241 240 240 238 237 239 244 239 249 251 221 214 205 202 201 204
247 272 278 299 312 314 311 309 305 298 295 293 289 282 278 276 275 273 269 266 266 266 264 256 253 247 246 242 236 236 236 235 236 236 236 231 231 235 230 217 215 194 204
252 265 286 309 312 309 311 310 304 302 297 291 292 288 285 282 277 274 273 274 272 271 264 256 253 255 248 242 237 234 232 231 232 233 240 236 233 240 230 228 222 222 200
317 294 299 308 309 312 313 310 303 298 298 295 294 291 290 287 283 284 279 274 266 264 267 266 260 251 245 240 234 230 231 229 229 226 229 235 234 232 226 216 216 220 227
313 302 304 308 311 316 314 306 303 304 302 305 308 303 296 293 294 291 287 283 278 271 262 258 257 249 246 234 231 231 230 230 229 228 224 227 222 221 225 226 228 228 224
312 308 308 310 316 316 312 314 319 308 315 319 314 312 309 307 304 298 295 289 284 277 268 260 255 248 245 242 238 235 230 233 232 229 223 223 222 222 223 227 229 228 235
316 312 310 316 322 318 322 327 321 318 324 323 318 321 318 316 308 306 303 298 291 284 274 264 255 247 239 236 233 235 240 234 233 232 222 220 216 221 222 228 232 235 236
315 309 311 322 323 327 332 329 325 329 329 324 327 328 323 318 317 314 308 301 294 287 277 266 257 250 239 235 237 235 239 229 232 230 225 217 217 219 221 223 230 235 231
313 316 321 324 330 338 336 333 332 334 334 332 333 330 327 327 325 323 318 312 300 288 278 266 254 247 237 233 235 233 234 230 236 221 226 216 212 221 227 228 235 237 234
318 322 325 327 339 342 337 333 336 339 338 337 335 335 333 333 333 327 326 321 311 299 273 260 253 244 232 231 233 232 237 233 236 217 229 216 214 224 231 234 243 245 239
322 324 325 331 342 342 338 334 340 339 341 340 339 339 335 338 334 337 340 342 337 321 284 261 251 241 228 229 230 229 224 229 231 222 229 213 223 226 231 238 242 247 249
325 324 323 328 339 344 340 337 344 343 340 346 345 337 335 338 341 346 350 357 2 358 342 283 246 231 224 225 224 225 212 222 230 224 214 211 221 224 229 228 232 238 238
321 320 317 322 333 345 342 342 348 346 345 352 344 338 339 339 347 352 355 4 9 8 2 336 244 216 218 220 216 214 223 226 211 224 222 218 221 222 221 223 227 227 225
320 323 316 316 328 344 347 348 351 349 352 351 344 342 347 347 355 4 4 20 15 17 17 18 119 193 189 190 159 201 194 207 210 204 211 212 219 222 227 229 224 219 215
307 320 317 313 324 340 349 354 355 353 351 353 348 349 355 359 2 13 14 35 42 43 53 60 75 87 131 159 137 196 198 207 192 186 190 198 205 218 225 215 217 217 203
312 307 310 306 313 336 350 359 360 356 355 357 356 358 10 14 18 31 38 43 55 63 64 68 78 82 93 101 98 167 190 169 169 173 180 175 162 177 183 184 189 189 169
317 302 301 296 300 326 350 2 5 3 7 11 8 18 27 29 41 48 56 59 59 66 69 76 81 85 93 108 107 125 139 136 166 155 150 142 149 149 144 145 156 157 161
333 317 286 285 284 298 344 2 14 14 22 24 34 45 53 52 59 64 61 59 63 66 78 83 89 96 100 99 105 106 113 127 136 137 133 140 140 135 135 145 145 143 139
319 320 287 277 274 275 302 351 8 23 32 32 47 64 70 70 68 63 60 62 65 69 76 81 89 92 92 100 113 124 134 137 134 131 132 133 131 130 134 133 128 122 118
292 307 296 268 267 264 268 286 335 16 37 46 54 67 80 83 84 81 79 74 75 76 78 80 81 85 91 102 108 114 120 125 129 128 128 128 132 130 125 122 125 130 135